Home > Weather > Alofi > Past weeks

Flag for Niue Past Weather in Alofi, Niue — Yesterday and Last 2 Weeks

Now
72 °F

Mild.


Feels Like: 72 °F
Forecast: 72 / 77 °F
Wind: 10 mph from East

Location: Alofi / Niue

Current Time: Aug 26, 2016 at 7:49:14 PM

Latest Report: Aug 26, 2016 at 7:00 PM


Visibility: N/A

Pressure: 30.12 "Hg

Humidity: 78%

Dew Point: 64 °F

Location of AlofiLocation

Past Weather in Alofi — Graph

°F

Alofi Temperature Yesterday

Maximum temperature yesterday: 77 °F (at 11:00 AM)
Minimum temperature yesterday: 59 °F (at 3:00 AM)
Average temperature yesterday: 70 °F

High & Low Weather Summary for the Past Weeks

 TemperatureHumidityPressure
High82 °F (Aug 15, 4:00 PM)100% (Aug 12, 4:00 AM)30.18 "Hg (Aug 12, 4:00 AM)
Low59 °F (Aug 25, 3:00 AM)51% (Aug 24, 2:00 PM)29.80 "Hg (Aug 17, 5:00 AM)
Average74 °F81%29.96 "Hg
* Reported Aug 11 6:00 PM — Aug 26 6:00 PM, Alofi, Weather by CustomWeather, © 2016

Note: Actual official high and low records may vary slightly from our data, if they occured in-between our weather recording intervals... More about our weather records

Advertising

Alofi Weather History for the Previous 24 Hours

Scroll right to see more
 ConditionsComfort  
Time TempWeatherWind HumidityBarometerVisibility
6:00 PM
Fri, Aug 26
73 °FMild.12 mph69%30.09 "HgN/A
5:00 PM75 °FMild.18 mph65%30.09 "HgN/A
4:00 PM77 °FWarm.16 mph61%30.09 "HgN/A
3:00 PM79 °FScattered clouds.18 mph54%30.09 "HgN/A
2:00 PM79 °FScattered clouds.18 mph58%30.09 "HgN/A
1:00 PM79 °FScattered clouds.20 mph54%30.12 "HgN/A
12:00 PM79 °FScattered clouds.15 mph51%30.15 "HgN/A
11:00 AM79 °FScattered clouds.18 mph58%30.18 "HgN/A
10:00 AM77 °FScattered clouds.16 mph61%30.18 "HgN/A
9:00 AM75 °FPartly sunny.14 mph61%30.18 "HgN/A
8:00 AM72 °FDrizzle. Partly sunny.9 mph73%30.18 "HgN/A
7:00 AM70 °FPartly sunny.6 mph73%30.15 "HgN/A
6:00 AM72 °FSprinkles. Passing clouds.7 mph78%30.12 "HgN/A
5:00 AM72 °FPassing clouds.7 mph65%30.09 "HgN/A
4:00 AM72 °FPassing clouds.12 mph73%30.09 "HgN/A
3:00 AM68 °FPassing clouds.5 mph73%30.09 "HgN/A
2:00 AM70 °FPassing clouds.8 mph69%30.12 "HgN/A
1:00 AM70 °FPassing clouds.8 mph69%30.15 "HgN/A
12:00 AM70 °FMild.6 mph69%30.15 "HgN/A
11:00 PM
Thu, Aug 25
72 °FMild.10 mph61%30.18 "HgN/A
10:00 PM70 °FMild.8 mph64%30.15 "HgN/A
9:00 PM70 °FMild.7 mph69%30.15 "HgN/A
8:00 PM72 °FMild.12 mph65%30.15 "HgN/A
7:00 PM72 °FMild.13 mph69%30.12 "HgN/A
Weather by CustomWeather, © 2016

See weather overviewHow to use our weather pages